CZ-6A DEB, 60839

Orbit data source: Space-Track

CZ-6A DEB, 60839 is space debris in LEO originally from a launch on Tue, 06 Aug 2024 UTC launched from the Taiyaun Space Center, China (TSC). Debris objects in space refer to the collection of defunct objects orbiting the Earth. Examples of debris include non-operational satellites, rocket bodies, and fragments generated from explosions, collisions, or faulty payload assembly.

Loading next visibility...
Identifier
60839, 2024-140HS
Orbit
LEO
Country
Flag of CNCN / PRC
Related business
Manufacturer
SAST
Mission
Spacecraft
Bus & Motor
Unknown
Mass
Unknown
Launch date (UTC)
2024-08-06 (2 years ago)
Launch vehicle
Unknown
Launch site
Taiyaun Space Center, China (TSC)
Object type
Payload
Rocket body
Debris
Shape & HBR
Unknown shape, 0.1 m
Radar Cross Section
Medium (>0.1 m² and <1 m²)

Expand to show TLE details & history
Last TLE update: 13 hours ago

TLE from 13 hours ago
0 CZ-6A DEB
1 60839U 24140HS  26171.30569213  .00000192  00000-0  15155-3 0  9995
2 60839  88.9562 276.5561 0258274 324.4234  33.9943 13.74052543 92846
Epoch: 2026-06-20T07:20Z
TLE epoch observation values (Epoch: 2026-06-20T07:20:11.800Z)
Latitude
-0.00007°
Longitude
-102.01528°
Altitude
831.932 km
Speed
7.515 km/s
True Right ascension
18h 26m 13s
True Declination
0° 00' 00"
Sunlit
Object was in full shadow at epoch
Visualization orbit readout
Latitude
Unknown
Longitude
Unknown
Altitude
Unknown
Speed
Unknown
Apparent Right ascension
Unknown
Apparent Declination
Unknown
Sunlit
N/A
Visualization observer readout
Local Sidereal Time
07:21:53
Azimuth
Unknown
Elevation
Unknown
Doppler factor
Unknown
Orbital elements
Apogee altitude
1,172.167 km
Perigee altitude
791.977 km
Semi-major axis
7,360.209 km
Eccentricity
0.02583
Inclination
88.9562°
RAAN
276.5561°
Arg. of periapsis
324.4234°
True anomaly
35.69425°
Mean anomaly
33.9943°
Eccentric anomaly
34.83968°
Mean motion
3.43722 °/min
Orbital period
104.74 mins
BSTAR
0.00015155
Loading maneuver chart data...
Computing Atmospheric mass density...
Loading historical data...
Loading historical data...
Loading historical data...
Loading historical data...
Loading historical data...
Loading historical data...
Loading historical data...

Documentation

Showing up to 5 results
|